Vertical_Velocity
-1 -1 -1 -1 -1 -1 -1 -1 -1 -1 -0 -1 -2 -1 -0 0 -0 -1 0 1 -0 -1 0 2 0 1 -0 -0 0 0 -0 -0 3
-0 -0 -0 -1 -1 -2 -1 -2 -1 -0 -1 -0 -0 -0 -0 -1 -1 -1 -0 1 -1 0 0 -2 -1 1 -1 5 2 1 0 -1 -1
-0 -0 -1 -1 -1 -1 -1 -1 -1 -1 -0 -2 -1 -0 -0 -0 -1 -1 0 -1 -1 0 -0 -0 0 0 -0 -1 -1 0 -1 -1 -2
-1 -0 -0 -1 -0 -1 -1 -0 -1 -1 -1 0 -0 -0 -0 -0 -1 -2 -1 1 0 -1 1 -0 -0 -1 1 1 0 1 0 -1 0
-1 -1 -0 -0 -1 -1 -1 -1 -1 -0 -1 -2 -1 0 -0 0 0 -0 -1 -1 0 0 -0 1 1 -1 -0 0 -1 0 0 -0 -3
-1 0 0 -0 -0 -0 -1 -1 -1 -1 -0 -1 -0 -1 -1 -0 -0 -0 -1 -1 0 1 0 -1 -1 -0 -2 1 -2 2 -0 0 1
-1 -1 -1 -1 -0 -0 0 0 -0 -1 -2 -2 -0 -0 -0 -0 0 0 -0 -1 -2 -1 2 1 -1 -2 1 -4 0 -0 0 -1 0
-1 -0 -1 -1 -1 -2 -1 -1 -1 -1 -1 -1 -0 -1 -0 -1 -0 0 0 -0 -0 -0 -2 1 2 0 -2 0 -0 -1 -1 0 0
-0 -0 -1 -1 -1 -1 -1 -1 -1 -0 -0 -1 -1 -1 -0 0 -0 -0 -0 1 1 1 2 -0 1 3 0 -1 -0 -1 2 0 -2
-1 0 -0 -0 -1 -1 -1 -1 -0 -1 -1 -1 -1 -1 -1 -0 0 1 1 0 -0 0 0 1 0 0 2 0 1 -0 1 -0 1
-0 -1 -1 -1 -1 -1 -0 -0 -1 -1 -2 -2 -1 -1 -1 -1 -1 -1 -1 0 0 -1 0 -0 1 -0 -0 0 0 -0 -0 -0 0
-1 -1 -0 -0 -1 -1 -1 -2 -1 -2 -3 -1 0 -1 -1 -1 -2 -2 -2 -1 0 -0 -1 1 0 2 -0 -1 -0 2 1 0 0
-0 -0 -0 -1 -2 -2 -2 -1 -2 -2 -1 -1 -1 -2 -1 -0 -0 -1 -1 -1 -1 -0 -1 -0 -1 -1 1 1 -0 -1 1 1 0
-1 -1 -2 -2 -2 -2 -1 -3 -1 -0 -1 -2 -1 -0 -1 0 0 1 -0 -2 -1 -1 -1 -1 -0 -0 -1 -1 0 1 -1 -0 1
-2 -2 -2 -1 -2 -2 -1 -0 -2 -1 0 -2 -0 1 1 1 -1 0 2 -0 -0 -1 -1 -0 -0 1 0 -0 -0 -0 1 1 0
-0 -2 -3 -1 -1 -1 -1 -1 -3 -6 -4 -2 -7 -2 -2 2 -0 0 -1 2 2 1 0 1 1 0 1 -0 0 -0 -0 0 1
-2 -2 -1 0 -0 -1 -2 -2 -2 -1 -1 -3 -2 -4 -1 -3 -1 -1 1 -1 1 1 2 2 1 -0 0 1 1 1 0 0 0
-0 0 -0 -1 -2 -1 -1 -1 -2 -3 -4 -3 -3 -2 2 2 0 -1 -5 -1 -0 1 1 2 1 0 1 0 1 0 1 1 1
-0 -2 -2 -1 -1 -2 -3 -3 -0 1 1 2 2 -1 -5 -8 -4 10 -1 -2 -1 -2 0 0 3 1 2 2 1 -1 -1 1 1
-1 -0 -0 -0 0 0 -1 -1 -1 -2 -3 -4 -5 -4 -1 0 -4 -6 10 -0 1 -3 -5 -3 -3 -2 1 1 -0 1 1 0 1
Height
3166 3165 3163 3162 3160 3159 3157 3154 3152 3150 3149 3148 3148 3148 3147 3147 3146 3145 3145 3145 3144 3143 3143 3143 3142 3143 3145 3145 3145 3145 3145 3146 3146
3165 3164 3162 3161 3159 3157 3155 3154 3151 3149 3147 3147 3147 3146 3145 3144 3143 3142 3141 3142 3141 3140 3140 3139 3139 3140 3140 3141 3140 3141 3142 3143 3143
3164 3163 3161 3160 3158 3156 3154 3153 3151 3148 3147 3145 3145 3144 3143 3142 3141 3139 3139 3138 3138 3137 3136 3135 3136 3136 3136 3137 3137 3137 3138 3139 3140
3163 3161 3160 3158 3156 3155 3153 3151 3149 3147 3145 3143 3142 3141 3140 3139 3138 3136 3135 3134 3134 3134 3134 3133 3132 3132 3132 3132 3133 3133 3133 3134 3135
3161 3160 3158 3156 3154 3153 3151 3149 3147 3145 3143 3141 3140 3138 3137 3136 3134 3133 3132 3130 3129 3130 3131 3130 3128 3128 3129 3128 3128 3128 3129 3130 3131
3160 3158 3156 3154 3152 3150 3148 3146 3144 3142 3140 3138 3137 3135 3134 3132 3130 3129 3128 3126 3126 3125 3126 3127 3127 3124 3126 3125 3124 3124 3125 3126 3127
3158 3157 3155 3153 3150 3148 3146 3143 3141 3138 3136 3134 3133 3132 3130 3129 3127 3125 3123 3122 3121 3120 3120 3120 3122 3122 3121 3121 3120 3121 3120 3121 3122
3156 3154 3152 3150 3148 3145 3143 3140 3138 3135 3132 3130 3129 3127 3125 3124 3123 3121 3119 3118 3116 3116 3115 3115 3114 3116 3116 3116 3117 3117 3116 3117 3118
3154 3152 3150 3148 3146 3143 3140 3138 3135 3133 3130 3127 3125 3123 3121 3120 3118 3117 3116 3114 3113 3112 3111 3110 3110 3109 3109 3110 3111 3111 3112 3112 3113
3151 3149 3147 3145 3143 3140 3138 3135 3132 3129 3127 3125 3122 3120 3118 3116 3114 3112 3111 3110 3109 3108 3107 3107 3106 3106 3105 3104 3105 3105 3106 3106 3108
3148 3147 3145 3143 3140 3137 3135 3132 3129 3127 3124 3122 3119 3117 3115 3113 3110 3108 3106 3105 3105 3104 3104 3103 3102 3101 3101 3100 3100 3099 3100 3101 3102
3146 3144 3141 3139 3136 3134 3131 3128 3126 3123 3120 3118 3116 3114 3111 3109 3107 3105 3103 3101 3100 3099 3098 3098 3097 3096 3095 3094 3094 3095 3095 3095 3096
3142 3140 3137 3134 3132 3129 3127 3124 3121 3119 3117 3114 3112 3110 3108 3106 3103 3101 3099 3097 3095 3094 3094 3093 3092 3091 3090 3089 3088 3088 3089 3089 3089
3137 3135 3132 3130 3127 3125 3122 3120 3118 3115 3112 3109 3107 3105 3103 3101 3100 3097 3095 3093 3091 3090 3089 3088 3087 3086 3086 3085 3084 3083 3083 3083 3083
3132 3130 3128 3126 3123 3120 3117 3114 3111 3110 3108 3105 3103 3101 3099 3097 3095 3093 3091 3089 3088 3086 3085 3084 3082 3081 3081 3080 3079 3078 3078 3078 3078
3128 3126 3124 3121 3118 3115 3113 3110 3107 3104 3103 3102 3098 3096 3094 3093 3090 3089 3087 3085 3084 3082 3080 3079 3078 3077 3075 3074 3074 3073 3073 3073 3072
3124 3121 3118 3116 3114 3111 3109 3107 3103 3100 3098 3097 3095 3093 3091 3088 3086 3084 3082 3080 3078 3076 3075 3074 3072 3071 3070 3069 3068 3068 3067 3067 3067
3118 3116 3114 3112 3109 3106 3103 3100 3097 3094 3091 3089 3087 3085 3085 3084 3082 3080 3078 3076 3074 3072 3070 3068 3066 3065 3064 3063 3062 3061 3061 3061 3060
3113 3111 3109 3106 3103 3100 3098 3095 3092 3089 3086 3083 3081 3079 3078 3076 3077 3076 3074 3072 3070 3068 3065 3062 3059 3058 3056 3056 3055 3054 3053 3053 3053
3108 3106 3104 3102 3099 3096 3093 3090 3087 3084 3082 3079 3077 3074 3071 3069 3067 3068 3069 3067 3064 3061 3059 3056 3053 3050 3049 3047 3046 3046 3045 3045 3045